Time,TemperatureF,DewpointF,PressureIn,WindDirection,WindDirectionDegrees,WindSpeedMPH,WindSpeedGustMPH,Humidity,HourlyPrecipIn,Conditions,Clouds,dailyrainin,SoftwareType,DateUTC
2013-03-09 00:01:00,42.7,38.5,29.93,SSE,154,7.0,9.0,85,0.00,,-RA,0.00,VWS V14.01,2013-03-09 06:01:00,
2013-03-09 00:06:00,42.7,38.5,29.92,South,179,7.0,14.0,85,0.00,,-RA,0.00,VWS V14.01,2013-03-09 06:06:00,
2013-03-09 00:11:00,42.7,38.5,29.92,SE,146,5.0,13.0,85,0.00,,-RA,0.00,VWS V14.01,2013-03-09 06:11:00,
2013-03-09 00:16:00,42.8,38.6,29.92,SE,145,9.0,12.0,85,0.00,,-RA,0.00,VWS V14.01,2013-03-09 06:16:00,
2013-03-09 00:21:00,42.9,38.7,29.92,SE,144,7.0,13.0,85,0.00,,-RA,0.00,VWS V14.01,2013-03-09 06:21:00,
2013-03-09 00:26:00,43.0,38.8,29.92,SE,146,12.0,12.0,85,0.00,,-RA,0.00,VWS V14.01,2013-03-09 06:26:00,
2013-03-09 00:31:00,43.1,38.9,29.92,South,173,10.0,14.0,85,0.00,,-RA,0.00,VWS V14.01,2013-03-09 06:31:00,
2013-03-09 00:36:00,43.2,39.0,29.92,SSE,149,11.0,13.0,85,0.00,,-RA,0.00,VWS V14.01,2013-03-09 06:36:00,
2013-03-09 00:41:00,43.2,38.7,29.92,SSE,149,8.0,11.0,84,0.00,,OVC037CB,0.00,VWS V14.01,2013-03-09 06:41:00,
2013-03-09 00:46:00,43.2,38.7,29.92,SSE,165,13.0,13.0,84,0.00,,OVC037CB,0.00,VWS V14.01,2013-03-09 06:46:00,
2013-03-09 00:51:00,43.3,38.8,29.91,South,172,12.0,13.0,84,0.00,,,0.00,VWS V14.01,2013-03-09 06:51:00,
2013-03-09 00:56:00,43.3,38.8,29.92,South,181,10.0,14.0,84,0.00,,,0.00,VWS V14.01,2013-03-09 06:56:00,
2013-03-09 01:01:00,43.3,38.8,29.91,SSE,155,11.0,12.0,84,0.00,,,0.00,VWS V14.01,2013-03-09 07:01:00,
2013-03-09 01:06:00,43.3,38.8,29.91,SSE,159,8.0,15.0,84,0.00,,,0.00,VWS V14.01,2013-03-09 07:06:00,
2013-03-09 01:11:00,43.3,38.8,29.91,South,172,9.0,9.0,84,0.00,,,0.00,VWS V14.01,2013-03-09 07:11:00,
2013-03-09 01:16:00,43.2,38.7,29.92,South,172,4.0,10.0,84,0.00,,,0.00,VWS V14.01,2013-03-09 07:16:00,
2013-03-09 01:22:00,43.3,38.8,29.92,SSE,168,5.0,12.0,84,0.00,,,0.00,VWS V14.01,2013-03-09 07:22:00,
2013-03-09 01:27:00,43.2,38.7,29.91,SSE,168,5.0,10.0,84,0.00,,,0.00,VWS V14.01,2013-03-09 07:27:00,
2013-03-09 01:32:00,43.3,38.8,29.91,South,178,5.0,9.0,84,0.00,,,0.00,VWS V14.01,2013-03-09 07:32:00,
2013-03-09 01:37:00,43.3,38.8,29.91,SSE,166,9.0,11.0,84,0.00,,,0.00,VWS V14.01,2013-03-09 07:37:00,
2013-03-09 01:42:00,43.2,39.0,29.91,South,170,6.0,7.0,85,0.00,,-RA,0.00,VWS V14.01,2013-03-09 07:42:00,
2013-03-09 01:47:00,43.1,38.9,29.91,SSE,154,8.0,9.0,85,0.00,,-RA,0.00,VWS V14.01,2013-03-09 07:47:00,
2013-03-09 01:52:00,43.1,38.9,29.90,SSE,147,9.0,10.0,85,0.00,,-RA,0.00,VWS V14.01,2013-03-09 07:52:00,
2013-03-09 01:57:00,43.1,39.2,29.90,SSE,150,6.0,9.0,86,0.00,,-RA,0.00,VWS V14.01,2013-03-09 07:57:00,
2013-03-09 02:02:00,43.2,39.3,29.90,South,177,4.0,7.0,86,0.00,,-RA,0.00,VWS V14.01,2013-03-09 08:02:00,
2013-03-09 02:07:00,43.2,39.3,29.90,SSE,162,6.0,9.0,86,0.00,,-RA,0.00,VWS V14.01,2013-03-09 08:07:00,
2013-03-09 02:12:00,43.3,39.1,29.90,South,173,4.0,9.0,85,0.00,,-RA,0.00,VWS V14.01,2013-03-09 08:12:00,
2013-03-09 02:17:00,43.4,39.2,29.89,SSE,150,6.0,9.0,85,0.00,,-RA,0.00,VWS V14.01,2013-03-09 08:17:00,
2013-03-09 02:22:00,43.6,39.4,29.89,SSE,152,7.0,8.0,85,0.00,,-RA,0.00,VWS V14.01,2013-03-09 08:22:00,
2013-03-09 02:27:00,43.7,39.2,29.89,SSE,154,5.0,11.0,84,0.00,,-RA,0.00,VWS V14.01,2013-03-09 08:27:00,
2013-03-09 02:32:00,43.8,39.3,29.89,SSE,149,9.0,11.0,84,0.00,,-RA,0.00,VWS V14.01,2013-03-09 08:32:00,
2013-03-09 02:37:00,43.9,39.7,29.89,SE,140,9.0,9.0,85,0.00,,-RA,0.00,VWS V14.01,2013-03-09 08:37:00,
2013-03-09 02:42:00,43.9,39.4,29.88,SE,125,7.0,10.0,84,0.00,,,0.00,VWS V14.01,2013-03-09 08:42:00,
2013-03-09 02:47:00,44.0,39.5,29.88,SSE,160,8.0,9.0,84,0.00,,,0.00,VWS V14.01,2013-03-09 08:47:00,
2013-03-09 02:52:00,44.0,39.5,29.87,SSE,147,6.0,10.0,84,0.00,,,0.00,VWS V14.01,2013-03-09 08:52:00,
2013-03-09 02:57:00,44.0,39.5,29.87,SSE,150,6.0,10.0,84,0.00,,,0.00,VWS V14.01,2013-03-09 08:57:00,
2013-03-09 03:02:00,43.9,39.4,29.86,SE,136,9.0,10.0,84,0.00,,,0.00,VWS V14.01,2013-03-09 09:02:00,
2013-03-09 03:07:00,44.0,39.5,29.86,SE,138,7.0,10.0,84,0.00,,,0.00,VWS V14.01,2013-03-09 09:07:00,
2013-03-09 03:12:00,44.0,39.5,29.86,SE,138,7.0,9.0,84,0.00,,,0.00,VWS V14.01,2013-03-09 09:12:00,
2013-03-09 03:17:00,44.0,39.5,29.85,ESE,106,3.0,9.0,84,0.00,,,0.00,VWS V14.01,2013-03-09 09:17:00,
2013-03-09 03:22:00,44.0,39.5,29.84,SE,138,5.0,5.0,84,0.00,,,0.00,VWS V14.01,2013-03-09 09:22:00,
2013-03-09 03:27:00,44.0,39.5,29.84,SSE,153,3.0,5.0,84,0.00,,,0.00,VWS V14.01,2013-03-09 09:27:00,
2013-03-09 03:32:00,43.9,39.4,29.84,SE,125,3.0,8.0,84,0.00,,,0.00,VWS V14.01,2013-03-09 09:32:00,
2013-03-09 03:37:00,43.8,39.3,29.84,SE,135,2.0,4.0,84,0.00,,,0.00,VWS V14.01,2013-03-09 09:37:00,
2013-03-09 03:42:00,43.8,39.3,29.84,SE,143,1.0,4.0,84,0.00,,-RA,0.00,VWS V14.01,2013-03-09 09:42:00,
2013-03-09 03:47:00,43.8,39.3,29.83,SE,139,3.0,3.0,84,0.00,,-RA,0.00,VWS V14.01,2013-03-09 09:47:00,
2013-03-09 03:52:00,43.8,39.6,29.83,ESE,120,7.0,7.0,85,0.00,,-RA,0.00,VWS V14.01,2013-03-09 09:52:00,
2013-03-09 03:57:00,43.9,39.7,29.83,SE,141,3.0,5.0,85,0.00,,-RA,0.00,VWS V14.01,2013-03-09 09:57:00,
2013-03-09 04:02:00,44.0,39.8,29.83,SE,124,3.0,5.0,85,0.00,,-RA,0.00,VWS V14.01,2013-03-09 10:02:00,
2013-03-09 04:07:00,44.0,39.5,29.83,SE,127,4.0,7.0,84,0.00,,-RA,0.00,VWS V14.01,2013-03-09 10:07:00,
2013-03-09 04:12:00,43.9,39.4,29.82,SE,143,3.0,4.0,84,0.00,,-RA,0.00,VWS V14.01,2013-03-09 10:12:00,
2013-03-09 04:17:00,43.8,39.3,29.82,SE,125,3.0,4.0,84,0.00,,-RA,0.00,VWS V14.01,2013-03-09 10:17:00,
2013-03-09 04:22:00,43.7,39.5,29.82,SSE,147,4.0,4.0,85,0.00,,-RA,0.00,VWS V14.01,2013-03-09 10:22:00,
2013-03-09 04:27:00,43.6,39.4,29.82,East,100,3.0,7.0,85,0.00,,-RA,0.00,VWS V14.01,2013-03-09 10:27:00,
2013-03-09 04:32:00,43.4,39.2,29.82,ESE,108,3.0,6.0,85,0.00,,-RA,0.00,VWS V14.01,2013-03-09 10:32:00,
2013-03-09 04:37:00,43.3,39.1,29.81,SE,127,5.0,6.0,85,0.00,,-RA,0.00,VWS V14.01,2013-03-09 10:37:00,
2013-03-09 04:42:00,43.3,39.4,29.81,SE,129,5.0,8.0,86,0.00,,,0.00,VWS V14.01,2013-03-09 10:42:00,
2013-03-09 04:47:00,43.3,39.1,29.80,SE,139,5.0,6.0,85,0.00,,,0.00,VWS V14.01,2013-03-09 10:47:00,
2013-03-09 04:52:00,43.2,39.3,29.80,SE,128,4.0,5.0,86,0.00,,-RA,0.00,VWS V14.01,2013-03-09 10:52:00,
2013-03-09 04:57:00,43.1,39.2,29.80,ESE,123,5.0,9.0,86,0.00,,-RA,0.00,VWS V14.01,2013-03-09 10:57:00,
2013-03-09 05:02:00,43.0,39.1,29.79,SE,125,7.0,10.0,86,0.00,,-RA,0.00,VWS V14.01,2013-03-09 11:02:00,
2013-03-09 05:07:00,42.9,39.0,29.80,SE,145,7.0,9.0,86,0.00,,-RA,0.00,VWS V14.01,2013-03-09 11:07:00,
2013-03-09 05:13:00,42.9,39.0,29.80,SSE,166,5.0,10.0,86,0.00,,-RA,0.00,VWS V14.01,2013-03-09 11:13:00,
2013-03-09 05:18:00,42.8,38.9,29.80,SE,126,8.0,10.0,86,0.00,,-RA,0.00,VWS V14.01,2013-03-09 11:18:00,
2013-03-09 05:23:00,42.9,39.3,29.80,SSE,148,6.0,10.0,87,0.00,,-RA,0.00,VWS V14.01,2013-03-09 11:23:00,
2013-03-09 05:28:00,43.0,39.1,29.79,SE,139,4.0,9.0,86,0.00,,-RA,0.00,VWS V14.01,2013-03-09 11:28:00,
2013-03-09 05:33:00,43.0,39.1,29.79,SE,144,4.0,7.0,86,0.00,,-RA,0.00,VWS V14.01,2013-03-09 11:33:00,
2013-03-09 05:38:00,43.1,39.2,29.79,SSE,152,5.0,10.0,86,0.00,,-RA,0.00,VWS V14.01,2013-03-09 11:38:00,
2013-03-09 05:43:00,43.2,39.3,29.79,SE,135,6.0,7.0,86,0.00,,-RA,0.00,VWS V14.01,2013-03-09 11:43:00,
2013-03-09 05:48:00,43.2,39.3,29.80,SE,145,4.0,7.0,86,0.00,,-RA,0.00,VWS V14.01,2013-03-09 11:48:00,
2013-03-09 05:53:00,43.3,39.4,29.80,SSE,149,6.0,10.0,86,0.00,,-RA,0.00,VWS V14.01,2013-03-09 11:53:00,
2013-03-09 05:58:00,43.3,39.1,29.80,SSE,160,4.0,9.0,85,0.00,,-RA,0.00,VWS V14.01,2013-03-09 11:58:00,
2013-03-09 06:03:00,43.3,39.4,29.80,SSE,154,7.0,11.0,86,0.00,,-RA,0.00,VWS V14.01,2013-03-09 12:03:00,
2013-03-09 06:08:00,43.4,39.5,29.80,SSE,149,4.0,8.0,86,0.00,,-RA,0.00,VWS V14.01,2013-03-09 12:08:00,
2013-03-09 06:13:00,43.4,39.2,29.79,SE,141,5.0,7.0,85,0.00,,-RA,0.00,VWS V14.01,2013-03-09 12:13:00,
2013-03-09 06:18:00,43.2,39.0,29.79,SSE,154,5.0,8.0,85,0.00,,-RA,0.00,VWS V14.01,2013-03-09 12:18:00,
2013-03-09 06:23:00,43.1,39.2,29.79,SE,126,5.0,11.0,86,0.00,,-RA,0.00,VWS V14.01,2013-03-09 12:23:00,
2013-03-09 06:28:00,43.1,39.2,29.79,SE,139,8.0,8.0,86,0.00,,-RA,0.00,VWS V14.01,2013-03-09 12:28:00,
2013-03-09 06:33:00,43.1,39.2,29.79,South,174,4.0,10.0,86,0.00,,-RA,0.00,VWS V14.01,2013-03-09 12:33:00,
2013-03-09 06:38:00,43.2,39.3,29.79,SSE,147,7.0,10.0,86,0.00,,-RA,0.00,VWS V14.01,2013-03-09 12:38:00,
2013-03-09 06:43:00,43.4,39.2,29.79,SSE,158,10.0,11.0,85,0.00,,,0.00,VWS V14.01,2013-03-09 12:43:00,
2013-03-09 06:48:00,43.4,39.2,29.79,SSE,149,5.0,12.0,85,0.00,,,0.00,VWS V14.01,2013-03-09 12:48:00,
2013-03-09 06:53:00,43.4,39.2,29.79,SE,144,8.0,11.0,85,0.00,,,0.00,VWS V14.01,2013-03-09 12:53:00,
2013-03-09 06:58:00,43.4,39.2,29.78,SSE,156,9.0,12.0,85,0.00,,,0.00,VWS V14.01,2013-03-09 12:58:00,
2013-03-09 07:03:00,43.4,39.2,29.78,SE,140,5.0,11.0,85,0.00,,,0.00,VWS V14.01,2013-03-09 13:03:00,
2013-03-09 07:08:00,43.4,39.2,29.78,SE,146,6.0,6.0,85,0.00,,,0.00,VWS V14.01,2013-03-09 13:08:00,
2013-03-09 07:13:00,43.4,39.2,29.78,SSE,148,5.0,11.0,85,0.00,,,0.00,VWS V14.01,2013-03-09 13:13:00,
2013-03-09 07:18:00,43.6,39.4,29.78,SE,143,8.0,11.0,85,0.00,,,0.00,VWS V14.01,2013-03-09 13:18:00,
2013-03-09 07:23:00,43.7,39.5,29.77,SSE,147,7.0,10.0,85,0.00,,,0.00,VWS V14.01,2013-03-09 13:23:00,
2013-03-09 07:28:00,43.9,39.7,29.77,SE,129,5.0,12.0,85,0.00,,,0.00,VWS V14.01,2013-03-09 13:28:00,
2013-03-09 07:33:00,44.1,39.9,29.76,SE,145,8.0,9.0,85,0.00,,,0.00,VWS V14.01,2013-03-09 13:33:00,
2013-03-09 07:38:00,44.2,40.0,29.75,South,191,8.0,9.0,85,0.00,,,0.00,VWS V14.01,2013-03-09 13:38:00,
2013-03-09 07:43:00,44.4,40.2,29.75,SE,132,10.0,10.0,85,0.00,,OVC090,0.00,VWS V14.01,2013-03-09 13:43:00,
2013-03-09 07:48:00,44.6,40.1,29.75,SE,145,7.0,13.0,84,0.00,,OVC090,0.00,VWS V14.01,2013-03-09 13:48:00,
2013-03-09 07:53:00,44.7,40.2,29.74,ESE,104,5.0,11.0,84,0.00,,OVC090,0.00,VWS V14.01,2013-03-09 13:53:00,
2013-03-09 07:58:00,44.8,40.3,29.74,SE,144,3.0,9.0,84,0.00,,OVC090,0.00,VWS V14.01,2013-03-09 13:58:00,
2013-03-09 08:03:00,44.9,40.4,29.73,SE,134,9.0,10.0,84,0.00,,OVC090,0.00,VWS V14.01,2013-03-09 14:03:00,
2013-03-09 08:08:00,45.1,40.6,29.73,SE,143,9.0,12.0,84,0.00,,OVC090,0.00,VWS V14.01,2013-03-09 14:08:00,
2013-03-09 08:13:00,45.3,40.8,29.73,SSE,166,7.0,20.0,84,0.00,,OVC090,0.00,VWS V14.01,2013-03-09 14:13:00,
2013-03-09 08:18:00,45.3,40.8,29.73,ESE,122,9.0,13.0,84,0.00,,OVC090,0.00,VWS V14.01,2013-03-09 14:18:00,
2013-03-09 08:23:00,45.2,40.7,29.72,SE,125,8.0,14.0,84,0.00,,OVC090,0.00,VWS V14.01,2013-03-09 14:23:00,
2013-03-09 08:28:00,45.3,40.8,29.72,SSE,152,10.0,14.0,84,0.00,,OVC090,0.00,VWS V14.01,2013-03-09 14:28:00,
2013-03-09 08:33:00,45.3,40.8,29.71,ESE,109,7.0,16.0,84,0.00,,OVC090,0.00,VWS V14.01,2013-03-09 14:33:00,
2013-03-09 08:38:00,45.3,41.1,29.72,SE,136,10.0,16.0,85,0.00,,OVC090,0.00,VWS V14.01,2013-03-09 14:38:00,
2013-03-09 08:43:00,45.5,41.0,29.72,SSE,158,10.0,16.0,84,0.00,,OVC100,0.00,VWS V14.01,2013-03-09 14:43:00,
2013-03-09 08:48:00,45.4,40.9,29.72,SSE,155,12.0,16.0,84,0.00,,OVC100,0.00,VWS V14.01,2013-03-09 14:48:00,
2013-03-09 08:53:00,45.5,41.3,29.73,SE,141,13.0,14.0,85,0.00,,OVC100,0.00,VWS V14.01,2013-03-09 14:53:00,
2013-03-09 08:59:00,45.5,41.3,29.73,South,170,13.0,17.0,85,0.00,,OVC100,0.00,VWS V14.01,2013-03-09 14:59:00,
2013-03-09 09:04:00,45.4,41.2,29.74,South,173,10.0,15.0,85,0.00,,OVC100,0.00,VWS V14.01,2013-03-09 15:04:00,
2013-03-09 09:09:00,45.2,41.3,29.74,SSE,152,11.0,16.0,86,0.00,,OVC100,0.00,VWS V14.01,2013-03-09 15:09:00,
2013-03-09 09:14:00,45.0,41.1,29.74,SSE,158,12.0,19.0,86,0.00,,OVC100,0.00,VWS V14.01,2013-03-09 15:14:00,
2013-03-09 09:19:00,44.9,41.3,29.74,South,170,9.0,12.0,87,0.00,,OVC100,0.00,VWS V14.01,2013-03-09 15:19:00,
2013-03-09 09:24:00,44.8,41.2,29.75,SSE,158,13.0,15.0,87,0.00,,OVC100,0.00,VWS V14.01,2013-03-09 15:24:00,
2013-03-09 09:29:00,44.6,41.0,29.75,South,181,9.0,13.0,87,0.00,,OVC100,0.00,VWS V14.01,2013-03-09 15:29:00,
2013-03-09 09:34:00,44.4,41.1,29.75,SSE,156,7.0,11.0,88,0.00,,OVC100,0.00,VWS V14.01,2013-03-09 15:34:00,
2013-03-09 09:39:00,44.4,41.1,29.74,South,176,9.0,12.0,88,0.00,,OVC100,0.00,VWS V14.01,2013-03-09 15:39:00,
2013-03-09 09:44:00,44.5,41.5,29.73,SSE,149,13.0,14.0,89,0.00,,OVC026,0.00,VWS V14.01,2013-03-09 15:44:00,
2013-03-09 09:49:00,44.7,41.7,29.72,SSE,158,20.0,21.0,89,0.00,,OVC026,0.00,VWS V14.01,2013-03-09 15:49:00,
2013-03-09 09:54:00,44.7,42.0,29.71,SSE,152,12.0,18.0,90,0.00,,OVC026,0.00,VWS V14.01,2013-03-09 15:54:00,
2013-03-09 09:59:00,44.6,41.8,29.71,SSE,161,14.0,16.0,90,0.00,,OVC026,0.00,VWS V14.01,2013-03-09 15:59:00,
2013-03-09 10:04:00,44.5,41.8,29.71,SSE,158,9.0,14.0,90,0.00,,OVC026,0.00,VWS V14.01,2013-03-09 16:04:00,
2013-03-09 10:09:00,44.4,41.9,29.70,SE,145,9.0,17.0,91,0.00,,OVC026,0.00,VWS V14.01,2013-03-09 16:09:00,
2013-03-09 10:15:00,44.5,42.0,29.70,SSE,150,15.0,18.0,91,0.00,,OVC026,0.00,VWS V14.01,2013-03-09 16:15:00,
2013-03-09 10:20:00,44.7,42.5,29.69,SSE,150,15.0,18.0,92,0.00,,OVC026,0.00,VWS V14.01,2013-03-09 16:20:00,
2013-03-09 10:25:00,44.8,42.6,29.69,SE,144,15.0,15.0,92,0.00,,OVC026,0.00,VWS V14.01,2013-03-09 16:25:00,
2013-03-09 10:30:00,45.0,42.8,29.69,South,175,10.0,16.0,92,0.00,,OVC026,0.00,VWS V14.01,2013-03-09 16:30:00,
2013-03-09 10:35:00,45.1,43.2,29.69,SE,142,9.0,18.0,93,0.00,,OVC026,0.00,VWS V14.01,2013-03-09 16:35:00,
2013-03-09 10:40:00,45.3,43.4,29.68,SE,134,12.0,19.0,93,0.00,,OVC026,0.00,VWS V14.01,2013-03-09 16:40:00,
2013-03-09 10:45:00,45.5,43.6,29.67,SSE,162,11.0,20.0,93,0.00,,OVC024,0.00,VWS V14.01,2013-03-09 16:45:00,
2013-03-09 10:50:00,45.9,44.3,29.66,SE,137,20.0,20.0,94,0.00,,OVC024,0.00,VWS V14.01,2013-03-09 16:50:00,
2013-03-09 10:55:00,46.1,44.2,29.66,SSE,156,12.0,18.0,93,0.00,,OVC014,0.00,VWS V14.01,2013-03-09 16:55:00,
2013-03-09 11:00:00,46.3,44.4,29.66,SSE,163,20.0,23.0,93,0.00,,OVC014,0.00,VWS V14.01,2013-03-09 17:00:00,
2013-03-09 11:05:00,46.5,44.6,29.65,SE,144,9.0,18.0,93,0.00,,OVC014,0.00,VWS V14.01,2013-03-09 17:05:00,
2013-03-09 11:10:00,46.5,44.6,29.66,SSE,160,10.0,17.0,93,0.00,,OVC014,0.00,VWS V14.01,2013-03-09 17:10:00,
2013-03-09 11:15:00,46.7,44.8,29.66,SE,143,14.0,19.0,93,0.00,,OVC014,0.00,VWS V14.01,2013-03-09 17:15:00,
2013-03-09 11:20:00,46.9,45.0,29.65,SE,130,9.0,17.0,93,0.00,,OVC014,0.00,VWS V14.01,2013-03-09 17:20:00,
2013-03-09 11:25:00,47.1,45.2,29.66,South,171,15.0,19.0,93,0.00,,OVC014,0.00,VWS V14.01,2013-03-09 17:25:00,
2013-03-09 11:30:00,47.4,45.5,29.66,SSE,166,16.0,22.0,93,0.00,,OVC014,0.00,VWS V14.01,2013-03-09 17:30:00,
2013-03-09 11:35:00,47.7,45.5,29.66,SSE,160,14.0,18.0,92,0.00,,OVC014,0.00,VWS V14.01,2013-03-09 17:35:00,
2013-03-09 11:40:00,48.0,45.8,29.65,SSE,160,11.0,15.0,92,0.00,,OVC014,0.00,VWS V14.01,2013-03-09 17:40:00,
2013-03-09 11:45:00,48.3,46.1,29.63,SSE,161,13.0,22.0,92,0.00,,OVC012,0.00,VWS V14.01,2013-03-09 17:45:00,
2013-03-09 11:50:00,48.6,46.4,29.65,South,179,15.0,23.0,92,0.00,,OVC012,0.00,VWS V14.01,2013-03-09 17:50:00,
2013-03-09 11:55:00,48.6,46.1,29.67,SSW,193,11.0,18.0,91,0.00,,OVC012,0.00,VWS V14.01,2013-03-09 17:55:00,
2013-03-09 12:00:00,48.7,46.2,29.66,SSW,196,10.0,15.0,91,0.00,,OVC012,0.00,VWS V14.01,2013-03-09 18:00:00,
2013-03-09 12:05:00,48.7,46.2,29.67,South,187,11.0,12.0,91,0.00,,OVC012,0.00,VWS V14.01,2013-03-09 18:05:00,
2013-03-09 12:10:00,48.7,46.2,29.65,SSE,158,8.0,11.0,91,0.00,,OVC012,0.00,VWS V14.01,2013-03-09 18:10:00,
2013-03-09 12:15:00,48.6,46.1,29.65,SSE,161,12.0,12.0,91,0.00,,OVC012,0.00,VWS V14.01,2013-03-09 18:15:00,
2013-03-09 12:20:00,48.6,46.1,29.64,South,178,7.0,14.0,91,0.00,,OVC012,0.00,VWS V14.01,2013-03-09 18:20:00,
2013-03-09 12:25:00,48.8,46.6,29.63,SSE,162,10.0,12.0,92,0.00,,OVC012,0.00,VWS V14.01,2013-03-09 18:25:00,
2013-03-09 12:30:00,49.0,46.8,29.63,SSE,168,10.0,12.0,92,0.00,,OVC012,0.00,VWS V14.01,2013-03-09 18:30:00,
2013-03-09 12:36:00,49.2,46.7,29.64,SSW,195,11.0,12.0,91,0.00,,,0.00,VWS V14.01,2013-03-09 18:36:00,
2013-03-09 12:41:00,49.3,46.8,29.64,South,191,7.0,10.0,91,0.00,,,0.00,VWS V14.01,2013-03-09 18:41:00,
2013-03-09 12:46:00,49.6,47.1,29.65,SSE,168,13.0,17.0,91,0.00,,,0.00,VWS V14.01,2013-03-09 18:46:00,
2013-03-09 12:51:00,49.6,46.8,29.65,South,189,14.0,16.0,90,0.00,,,0.00,VWS V14.01,2013-03-09 18:51:00,
2013-03-09 12:56:00,49.5,46.7,29.65,South,185,11.0,20.0,90,0.00,,,0.00,VWS V14.01,2013-03-09 18:56:00,
2013-03-09 13:01:00,49.2,46.7,29.64,South,181,13.0,18.0,91,0.00,,,0.00,VWS V14.01,2013-03-09 19:01:00,
2013-03-09 13:06:00,49.3,46.8,29.63,South,183,10.0,13.0,91,0.00,,,0.00,VWS V14.01,2013-03-09 19:06:00,
2013-03-09 13:11:00,49.5,47.0,29.63,South,188,15.0,15.0,91,0.00,,,0.00,VWS V14.01,2013-03-09 19:11:00,
2013-03-09 13:16:00,49.7,47.2,29.63,SSE,165,19.0,19.0,91,0.00,,,0.00,VWS V14.01,2013-03-09 19:16:00,
2013-03-09 13:21:00,49.9,47.4,29.63,South,186,12.0,14.0,91,0.00,,,0.00,VWS V14.01,2013-03-09 19:21:00,
2013-03-09 13:26:00,50.0,47.2,29.63,SSW,206,10.0,17.0,90,0.00,,,0.00,VWS V14.01,2013-03-09 19:26:00,
2013-03-09 13:31:00,49.9,47.1,29.63,South,188,9.0,14.0,90,0.00,,,0.00,VWS V14.01,2013-03-09 19:31:00,
2013-03-09 13:36:00,49.9,47.1,29.62,South,190,9.0,12.0,90,0.00,,,0.00,VWS V14.01,2013-03-09 19:36:00,
2013-03-09 13:41:00,49.9,47.1,29.63,South,181,9.0,14.0,90,0.00,,,0.00,VWS V14.01,2013-03-09 19:41:00,
2013-03-09 13:46:00,49.9,47.1,29.63,South,183,6.0,9.0,90,0.00,,,0.00,VWS V14.01,2013-03-09 19:46:00,
2013-03-09 13:51:00,50.0,47.2,29.63,South,172,12.0,16.0,90,0.00,,,0.00,VWS V14.01,2013-03-09 19:51:00,
2013-03-09 13:56:00,50.0,47.2,29.62,SW,215,10.0,14.0,90,0.00,,,0.00,VWS V14.01,2013-03-09 19:56:00,
2013-03-09 14:01:00,50.2,47.4,29.62,South,181,10.0,10.0,90,0.00,,,0.00,VWS V14.01,2013-03-09 20:01:00,
2013-03-09 14:06:00,50.3,47.5,29.61,South,179,9.0,11.0,90,0.00,,,0.00,VWS V14.01,2013-03-09 20:06:00,
2013-03-09 14:11:00,50.6,47.8,29.61,SSW,193,10.0,12.0,90,0.00,,,0.00,VWS V14.01,2013-03-09 20:11:00,
2013-03-09 14:16:00,50.9,48.1,29.60,South,183,8.0,10.0,90,0.00,,,0.00,VWS V14.01,2013-03-09 20:16:00,
2013-03-09 14:21:00,50.9,48.1,29.60,SSE,160,9.0,12.0,90,0.00,,,0.00,VWS V14.01,2013-03-09 20:21:00,
2013-03-09 14:26:00,50.9,48.1,29.60,South,180,12.0,14.0,90,0.00,,,0.00,VWS V14.01,2013-03-09 20:26:00,
2013-03-09 14:31:00,50.9,48.1,29.61,South,179,7.0,10.0,90,0.00,,,0.00,VWS V14.01,2013-03-09 20:31:00,
2013-03-09 14:36:00,51.0,47.9,29.62,SSW,197,10.0,11.0,89,0.00,,,0.00,VWS V14.01,2013-03-09 20:36:00,
2013-03-09 14:41:00,51.2,48.1,29.64,South,189,9.0,13.0,89,0.00,,,0.00,VWS V14.01,2013-03-09 20:41:00,
2013-03-09 14:46:00,51.3,48.2,29.64,SSW,199,9.0,15.0,89,0.00,,,0.00,VWS V14.01,2013-03-09 20:46:00,
2013-03-09 14:51:00,51.4,48.0,29.64,SSW,198,8.0,14.0,88,0.00,,,0.00,VWS V14.01,2013-03-09 20:51:00,
2013-03-09 14:58:00,51.6,48.2,29.64,South,177,7.0,10.0,88,0.00,,,0.00,VWS V14.01,2013-03-09 20:58:00,
2013-03-09 15:04:00,51.6,48.2,29.64,SSW,212,9.0,13.0,88,0.00,,,0.00,VWS V14.01,2013-03-09 21:04:00,
2013-03-09 15:09:00,51.6,48.2,29.64,SSW,199,9.0,15.0,88,0.00,,,0.00,VWS V14.01,2013-03-09 21:09:00,
2013-03-09 15:14:00,51.7,48.6,29.65,SSW,208,8.0,9.0,89,0.00,,,0.00,VWS V14.01,2013-03-09 21:14:00,
2013-03-09 15:19:00,51.7,48.6,29.64,South,180,6.0,8.0,89,0.00,,,0.00,VWS V14.01,2013-03-09 21:19:00,
2013-03-09 15:24:00,51.7,48.6,29.64,SSW,199,7.0,12.0,89,0.00,,,0.00,VWS V14.01,2013-03-09 21:24:00,
2013-03-09 15:29:00,51.8,48.7,29.63,South,180,6.0,8.0,89,0.00,,,0.00,VWS V14.01,2013-03-09 21:29:00,
2013-03-09 15:34:00,52.4,49.6,29.61,South,188,6.0,7.0,90,0.00,,,0.00,VWS V14.01,2013-03-09 21:34:00,
2013-03-09 15:39:00,52.8,49.3,29.61,South,178,7.0,8.0,88,0.00,,,0.00,VWS V14.01,2013-03-09 21:39:00,
2013-03-09 15:44:00,52.7,49.2,29.61,SSW,197,7.0,12.0,88,0.00,,,0.00,VWS V14.01,2013-03-09 21:44:00,
2013-03-09 15:49:00,52.7,49.2,29.62,SSW,196,9.0,10.0,88,0.00,,,0.00,VWS V14.01,2013-03-09 21:49:00,
2013-03-09 15:54:00,52.9,49.5,29.62,South,180,10.0,12.0,88,0.00,,,0.00,VWS V14.01,2013-03-09 21:54:00,
2013-03-09 15:59:00,53.0,49.5,29.61,South,191,7.0,13.0,88,0.00,,,0.00,VWS V14.01,2013-03-09 21:59:00,
2013-03-09 16:04:00,53.3,50.2,29.61,SSW,211,7.0,8.0,89,0.00,,,0.00,VWS V14.01,2013-03-09 22:04:00,
2013-03-09 16:09:00,53.4,49.9,29.62,South,169,6.0,8.0,88,0.00,,,0.00,VWS V14.01,2013-03-09 22:09:00,
2013-03-09 16:14:00,53.3,49.8,29.61,South,191,7.0,8.0,88,0.00,,,0.00,VWS V14.01,2013-03-09 22:14:00,
2013-03-09 16:19:00,53.2,49.7,29.61,South,185,10.0,13.0,88,0.00,,,0.00,VWS V14.01,2013-03-09 22:19:00,
2013-03-09 16:24:00,53.1,49.7,29.61,South,184,8.0,9.0,88,0.00,,,0.00,VWS V14.01,2013-03-09 22:24:00,
2013-03-09 16:29:00,53.1,50.0,29.60,SSE,155,9.0,9.0,89,0.00,,,0.00,VWS V14.01,2013-03-09 22:29:00,
2013-03-09 16:34:00,53.2,50.0,29.60,SSE,156,6.0,9.0,89,0.00,,,0.00,VWS V14.01,2013-03-09 22:34:00,
2013-03-09 16:39:00,53.1,50.0,29.59,SE,127,12.0,15.0,89,0.00,,,0.00,VWS V14.01,2013-03-09 22:39:00,
2013-03-09 16:44:00,53.1,50.0,29.58,SE,139,6.0,12.0,89,0.00,,-RA,0.00,VWS V14.01,2013-03-09 22:44:00,
2013-03-09 16:49:00,53.0,49.8,29.58,SE,135,10.0,13.0,89,0.00,,-RA,0.00,VWS V14.01,2013-03-09 22:49:00,
2013-03-09 16:54:00,52.9,50.0,29.58,SSE,155,8.0,10.0,90,0.00,,-RA,0.00,VWS V14.01,2013-03-09 22:54:00,
2013-03-09 16:59:00,52.7,49.8,29.57,ESE,114,7.0,11.0,90,0.00,,-RA,0.00,VWS V14.01,2013-03-09 22:59:00,
2013-03-09 17:04:00,52.4,49.6,29.56,SE,141,9.0,14.0,90,0.00,,-RA,0.00,VWS V14.01,2013-03-09 23:04:00,
2013-03-09 17:09:00,52.3,49.5,29.56,SE,136,8.0,14.0,90,0.00,,-RA,0.00,VWS V14.01,2013-03-09 23:09:00,
2013-03-09 17:14:00,52.2,49.7,29.56,ESE,115,10.0,11.0,91,0.00,,-RA,0.00,VWS V14.01,2013-03-09 23:14:00,
2013-03-09 17:19:00,52.0,49.5,29.55,SSE,149,13.0,16.0,91,0.00,,-RA,0.00,VWS V14.01,2013-03-09 23:19:00,
2013-03-09 17:24:00,51.8,49.3,29.56,SSE,165,9.0,15.0,91,0.00,,-RA,0.00,VWS V14.01,2013-03-09 23:24:00,
2013-03-09 17:29:00,51.6,49.1,29.57,SE,137,16.0,16.0,91,0.00,,-RA,0.00,VWS V14.01,2013-03-09 23:29:00,
2013-03-09 17:34:00,51.6,49.4,29.57,SSE,150,11.0,15.0,92,0.00,,-RA,0.00,VWS V14.01,2013-03-09 23:34:00,
2013-03-09 17:39:00,51.6,49.4,29.57,SSE,156,13.0,13.0,92,0.00,,-RA,0.00,VWS V14.01,2013-03-09 23:39:00,
2013-03-09 17:44:00,51.6,49.4,29.57,SE,145,6.0,17.0,92,0.00,,,0.00,VWS V14.01,2013-03-09 23:44:00,
2013-03-09 17:49:00,51.6,49.4,29.57,SSE,168,10.0,15.0,92,0.00,,,0.00,VWS V14.01,2013-03-09 23:49:00,
2013-03-09 17:54:00,51.5,49.3,29.57,South,170,9.0,19.0,92,0.00,,,0.00,VWS V14.01,2013-03-09 23:54:00,
2013-03-09 17:59:00,51.4,49.2,29.58,SSE,161,9.0,13.0,92,0.00,,,0.00,VWS V14.01,2013-03-09 23:59:00,
2013-03-09 18:04:00,51.4,49.2,29.57,SSE,152,7.0,11.0,92,0.00,,,0.00,VWS V14.01,2013-03-10 00:04:00,
2013-03-09 18:09:00,51.4,49.2,29.57,South,175,8.0,14.0,92,0.00,,,0.00,VWS V14.01,2013-03-10 00:09:00,
2013-03-09 18:14:00,51.4,49.5,29.57,SSE,149,8.0,14.0,93,0.00,,,0.00,VWS V14.01,2013-03-10 00:14:00,
2013-03-09 18:19:00,51.4,49.5,29.58,SSE,158,8.0,14.0,93,0.00,,,0.00,VWS V14.01,2013-03-10 00:19:00,
2013-03-09 18:24:00,51.5,49.5,29.58,SSE,168,11.0,17.0,93,0.00,,,0.00,VWS V14.01,2013-03-10 00:24:00,
2013-03-09 18:29:00,51.5,49.5,29.58,SSW,197,7.0,14.0,93,0.00,,,0.00,VWS V14.01,2013-03-10 00:29:00,
2013-03-09 18:34:00,51.6,49.7,29.59,South,187,8.0,13.0,93,0.00,,,0.00,VWS V14.01,2013-03-10 00:34:00,
2013-03-09 18:40:00,51.6,49.7,29.59,South,179,8.0,9.0,93,0.00,,,0.00,VWS V14.01,2013-03-10 00:40:00,
2013-03-09 18:45:00,51.6,49.7,29.58,SSE,163,3.0,6.0,93,0.00,,,0.00,VWS V14.01,2013-03-10 00:45:00,
2013-03-09 18:50:00,51.6,49.7,29.58,South,181,5.0,6.0,93,0.00,,,0.00,VWS V14.01,2013-03-10 00:50:00,
2013-03-09 18:55:00,51.5,49.5,29.58,South,170,4.0,6.0,93,0.00,,,0.00,VWS V14.01,2013-03-10 00:55:00,
2013-03-09 19:00:00,51.5,49.5,29.59,South,188,5.0,8.0,93,0.00,,,0.00,VWS V14.01,2013-03-10 01:00:00,
2013-03-09 19:05:00,51.5,49.5,29.59,South,181,4.0,6.0,93,0.00,,,0.00,VWS V14.01,2013-03-10 01:05:00,
2013-03-09 19:10:00,51.4,49.5,29.59,South,172,4.0,4.0,93,0.00,,,0.00,VWS V14.01,2013-03-10 01:10:00,
2013-03-09 19:15:00,51.3,49.3,29.59,South,187,4.0,5.0,93,0.00,,,0.00,VWS V14.01,2013-03-10 01:15:00,
2013-03-09 19:20:00,51.1,49.2,29.59,South,188,4.0,5.0,93,0.00,,,0.00,VWS V14.01,2013-03-10 01:20:00,
2013-03-09 19:25:00,51.0,49.0,29.59,South,170,3.0,4.0,93,0.00,,,0.00,VWS V14.01,2013-03-10 01:25:00,
2013-03-09 19:30:00,50.9,49.2,29.59,SSE,161,5.0,5.0,94,0.00,,,0.00,VWS V14.01,2013-03-10 01:30:00,
2013-03-09 19:35:00,50.7,48.8,29.58,South,172,3.0,5.0,93,0.00,,,0.00,VWS V14.01,2013-03-10 01:35:00,
2013-03-09 19:40:00,50.6,48.9,29.58,SSE,167,3.0,4.0,94,0.00,,,0.00,VWS V14.01,2013-03-10 01:40:00,
2013-03-09 19:45:00,50.5,48.8,29.57,SSE,165,1.0,4.0,94,0.00,,,0.00,VWS V14.01,2013-03-10 01:45:00,
2013-03-09 19:50:00,50.3,48.6,29.58,South,175,4.0,4.0,94,0.00,,,0.00,VWS V14.01,2013-03-10 01:50:00,
2013-03-09 19:55:00,50.2,48.5,29.58,South,187,2.0,3.0,94,0.00,,,0.00,VWS V14.01,2013-03-10 01:55:00,
2013-03-09 20:00:00,50.1,48.4,29.58,South,187,0.0,1.0,94,0.00,,,0.00,VWS V14.01,2013-03-10 02:00:00,
2013-03-09 20:05:00,49.9,48.2,29.59,South,187,0.0,0.0,94,0.00,,,0.00,VWS V14.01,2013-03-10 02:05:00,
2013-03-09 20:10:00,49.7,48.0,29.59,South,187,0.0,0.0,94,0.00,,,0.00,VWS V14.01,2013-03-10 02:10:00,
2013-03-09 20:15:00,49.7,48.0,29.59,South,187,0.0,0.0,94,0.00,,,0.00,VWS V14.01,2013-03-10 02:15:00,
2013-03-09 20:20:00,49.7,48.0,29.60,South,187,0.0,1.0,94,0.00,,,0.00,VWS V14.01,2013-03-10 02:20:00,
2013-03-09 20:25:00,49.9,48.5,29.60,South,187,0.0,0.0,95,0.00,,,0.00,VWS V14.01,2013-03-10 02:25:00,
2013-03-09 20:30:00,50.0,48.6,29.61,South,187,0.0,0.0,95,0.00,,,0.00,VWS V14.01,2013-03-10 02:30:00,
2013-03-09 20:35:00,49.9,48.5,29.61,South,187,0.0,0.0,95,0.00,,,0.00,VWS V14.01,2013-03-10 02:35:00,
2013-03-09 20:40:00,49.8,48.4,29.61,South,187,0.0,0.0,95,0.00,,,0.00,VWS V14.01,2013-03-10 02:40:00,
2013-03-09 20:45:00,49.9,48.5,29.61,NW,316,0.0,1.0,95,0.00,,,0.00,VWS V14.01,2013-03-10 02:45:00,
2013-03-09 20:50:00,49.9,48.5,29.61,NW,316,1.0,1.0,95,0.00,,,0.00,VWS V14.01,2013-03-10 02:50:00,
2013-03-09 20:55:00,50.0,48.6,29.61,NW,316,0.0,0.0,95,0.00,,,0.00,VWS V14.01,2013-03-10 02:55:00,
2013-03-09 21:00:00,49.9,48.5,29.61,NW,316,0.0,0.0,95,0.00,,,0.00,VWS V14.01,2013-03-10 03:00:00,
2013-03-09 21:05:00,49.7,48.3,29.61,NNE,21,2.0,3.0,95,0.00,,,0.00,VWS V14.01,2013-03-10 03:05:00,
2013-03-09 21:10:00,49.6,48.2,29.61,NNE,16,0.0,4.0,95,0.00,,,0.00,VWS V14.01,2013-03-10 03:10:00,
2013-03-09 21:16:00,49.6,48.2,29.61,NNE,26,2.0,4.0,95,0.00,,,0.00,VWS V14.01,2013-03-10 03:16:00,
2013-03-09 21:21:00,49.4,48.0,29.62,North,11,2.0,5.0,95,0.00,,,0.00,VWS V14.01,2013-03-10 03:21:00,
2013-03-09 21:26:00,49.5,48.1,29.62,North,10,1.0,4.0,95,0.00,,,0.00,VWS V14.01,2013-03-10 03:26:00,
2013-03-09 21:31:00,49.6,48.2,29.62,NNE,29,5.0,5.0,95,0.00,,,0.00,VWS V14.01,2013-03-10 03:31:00,
2013-03-09 21:36:00,49.5,48.1,29.62,NNE,16,0.0,4.0,95,0.00,,,0.00,VWS V14.01,2013-03-10 03:36:00,
2013-03-09 21:41:00,49.5,48.1,29.62,NNE,15,1.0,5.0,95,0.00,,,0.00,VWS V14.01,2013-03-10 03:41:00,
2013-03-09 21:46:00,49.4,48.0,29.62,NNE,30,1.0,4.0,95,0.00,,,0.00,VWS V14.01,2013-03-10 03:46:00,
2013-03-09 21:51:00,49.2,47.8,29.62,NNE,18,1.0,5.0,95,0.00,,,0.01,VWS V14.01,2013-03-10 03:51:00,
2013-03-09 21:56:00,49.1,47.7,29.62,NE,37,1.0,3.0,95,0.00,,,0.01,VWS V14.01,2013-03-10 03:56:00,
2013-03-09 22:01:00,49.0,47.6,29.63,North,8,0.0,1.0,95,0.00,,,0.01,VWS V14.01,2013-03-10 04:01:00,
2013-03-09 22:06:00,48.9,47.5,29.64,WNW,287,0.0,2.0,95,0.00,,,0.02,VWS V14.01,2013-03-10 04:06:00,
2013-03-09 22:11:00,48.8,47.4,29.64,NNW,332,0.0,1.0,95,0.00,,,0.03,VWS V14.01,2013-03-10 04:11:00,
2013-03-09 22:16:00,48.8,47.4,29.64,NW,305,4.0,6.0,95,0.00,,,0.04,VWS V14.01,2013-03-10 04:16:00,
2013-03-09 22:21:00,46.7,44.5,29.65,NW,321,5.0,8.0,92,0.00,,,0.04,VWS V14.01,2013-03-10 04:21:00,
2013-03-09 22:26:00,44.4,42.2,29.65,NNW,347,7.0,8.0,92,0.00,,,0.04,VWS V14.01,2013-03-10 04:26:00,
2013-03-09 22:31:00,43.1,41.2,29.65,NNE,13,8.0,10.0,93,0.00,,,0.04,VWS V14.01,2013-03-10 04:31:00,
2013-03-09 22:36:00,42.5,40.6,29.65,North,354,9.0,9.0,93,0.00,,,0.04,VWS V14.01,2013-03-10 04:36:00,
2013-03-09 22:41:00,42.1,40.5,29.66,North,11,12.0,12.0,94,0.00,, +RA,0.04,VWS V14.01,2013-03-10 04:41:00,
2013-03-09 22:46:00,41.8,40.2,29.66,NNE,19,10.0,10.0,94,0.00,, +RA,0.04,VWS V14.01,2013-03-10 04:46:00,
2013-03-09 22:51:00,41.6,40.0,29.66,NNW,343,8.0,9.0,94,0.00,,-RA,0.04,VWS V14.01,2013-03-10 04:51:00,
2013-03-09 22:56:00,41.3,39.7,29.66,North,4,7.0,12.0,94,0.00,,-RA,0.04,VWS V14.01,2013-03-10 04:56:00,
2013-03-09 23:00:00,41.1,39.5,29.66,North,10,8.0,13.0,94,0.00,,-RA,0.04,VWS V14.01,2013-03-10 05:00:00,
2013-03-09 23:01:00,41.0,39.4,29.67,NNE,22,5.0,10.0,94,0.00,,-RA,0.04,VWS V14.01,2013-03-10 05:01:00,
2013-03-09 23:06:00,41.0,39.4,29.66,North,354,6.0,8.0,94,0.00,,-RA,0.04,VWS V14.01,2013-03-10 05:06:00,
2013-03-09 23:11:00,40.6,39.0,29.66,North,4,8.0,10.0,94,0.00,,-RA,0.04,VWS V14.01,2013-03-10 05:11:00,
2013-03-09 23:16:00,40.4,38.8,29.66,North,350,4.0,14.0,94,0.00,,-RA,0.04,VWS V14.01,2013-03-10 05:16:00,
2013-03-09 23:21:00,40.2,38.6,29.65,NW,321,8.0,14.0,94,0.00,,-RA,0.04,VWS V14.01,2013-03-10 05:21:00,
2013-03-09 23:26:00,40.0,38.4,29.66,NNE,31,14.0,14.0,94,0.00,,-RA,0.04,VWS V14.01,2013-03-10 05:26:00,
2013-03-09 23:31:00,39.9,38.3,29.66,North,4,4.0,12.0,94,0.00,,-RA,0.05,VWS V14.01,2013-03-10 05:31:00,
2013-03-09 23:36:00,39.8,38.2,29.65,NW,321,10.0,12.0,94,0.00,,-RA,0.05,VWS V14.01,2013-03-10 05:36:00,
2013-03-09 23:41:00,39.9,38.3,29.65,North,354,8.0,13.0,94,0.00,,-RA,0.05,VWS V14.01,2013-03-10 05:41:00,
2013-03-09 23:46:00,39.8,38.2,29.65,North,4,3.0,15.0,94,0.00,,-RA,0.05,VWS V14.01,2013-03-10 05:46:00,
2013-03-09 23:51:00,39.8,38.2,29.66,North,349,6.0,13.0,94,0.00,,-RA,0.05,VWS V14.01,2013-03-10 05:51:00,
2013-03-09 23:56:00,39.7,38.1,29.65,North,359,5.0,14.0,94,0.00,,-RA,0.05,VWS V14.01,2013-03-10 05:56:00,